Regional Weather Roundup
Issued by NWS Newport/Morehead, NC

Current Version | Previous Version | Text Only | Print | Product List | Glossary On
Versions: 1 2 3 4 5 6 7 8 9 10 11 12 13 14 15 16 17 18 19 20 21 22 23 24 25 26 27 28 29 30 31 32 33 34 35 36 37 38 39 40 41 42 43 44 45 46 47 48 49 50
694
ASUS42 KMHX 121925
RWRMHX
WEATHER ROUNDUP FOR EASTERN NORTH CAROLINA
NATIONAL WEATHER SERVICE NEWPORT/MOREHEAD CITY NC
200 PM EST TUE DEC 12 2017

NOTE: "FAIR" INDICATES FEW OR NO CLOUDS BELOW 12,000 FEET
WITH NO SIGNIFICANT WEATHER AND/OR OBSTRUCTIONS TO VISIBILITY

NCZ015>017-031-032-045>047-102-103-122000-
NORTH COAST

CITY           SKY/WX    TMP DP  RH WIND       PRES   REMARKS
EDENTON        MOSUNNY   56  41  56 W8        29.58F
ELIZABETH CITY MOSUNNY   54  42  64 W10       29.56F
KITTY HAWK     PTCLDY    55  40  57 CALM      29.54F
MANTEO         MOSUNNY   55  40  56 W10G16    29.56F

$$

NCZ045>047-081-094-103-104-122000-
CENTRAL COAST

CITY           SKY/WX    TMP DP  RH WIND       PRES   REMARKS
FRISCO         SUNNY     63  46  54 SW24G36   29.56F

$$

NCZ095-097-098-100-101-122000-
SOUTHERN COAST

CITY           SKY/WX    TMP DP  RH WIND       PRES   REMARKS
BEAUFORT       SUNNY     60  50  69 W18G24    29.58F
CEDAR ISLAND   NOT AVBL
JACKSONVILLE   MOSUNNY   61  40  45 W14G23    29.58F
PINEY ISLAND     N/A    N/A N/A N/A SW20G29   29.56F
WILMINGTON     SUNNY     63  40  42 W15       29.60F


$$

NCZ011>013-027>030-043-044-078>080-089-090>093-098-122000-
COASTAL PLAIN

CITY           SKY/WX    TMP DP  RH WIND       PRES   REMARKS
AHOSKIE        MOSUNNY   51  37  58 SW3       29.58F
CLINTON        CLOUDY    55  39  55 W7        29.63F
ELIZABETHTOWN  NOT AVBL
GOLDSBORO      MOSUNNY   56  37  49 W13       29.59F
GREENVILLE     SUNNY     54  36  50 W8        29.63F
HAVELOCK       SUNNY     62  43  49 W13       29.58F
KENANSVILLE    CLOUDY    55  37  50 NW9       29.61F
KINSTON        MOSUNNY   57  39  51 SW10      29.62S
NEW BERN       SUNNY     58  39  49 W10       29.58F
RICHLANDS      SUNNY     59  40  49 W10       29.60F
ROCKY MOUNT    CLOUDY    53  35  50 W14G21    29.60F
WASHINGTON     MOSUNNY   55  37  50 W9G17     29.59F
WHITEVILLE     MOSUNNY   57  38  49 W7        29.62S

$$

AMZ130-135-150-152-154-156-158-170-250-252-270-ANZ085-086-088-633-658-670-122000-
MARINE OBSERVATIONS

STATION/POSITION TIME  TEMP    WIND        PRES    WAVE   SWELL
                       AIR SEA DIR/SP/G            HT/PER HT/PER
                 (UTC) (F)     (DEG/KT/KT) (MB)    (FT/S) (FT/S)
CHESAPEAKE LIGHT NOT AVBL
64 E VA BEACH    1850   55 61  240/ 21/ 27  999.8    8/ 7
DUCK             1900   51 56  250/ 10/ 14 1000.2
2 E DUCK         1900      56                N/A     2/13
OREGON INLET     1900   54 47  240/ 10/ 14 1000.5
13E OREGON INLT  1848      58                N/A     5/ 6   3/ 6
HATTERAS CG      1900   62 57  240/ 15/ 21 1000.7
DIAMOND BUOY     1910   66 74  230/ 29/ 37 1000.7
CAPE LOOKOUT     1900          230/ 14/ 19 1001.6
BEAUFORT LAB     1900   60 53  250/ 10/ 17 1001.5
30 SE NEW RVR IN 1908   64 66  220/ 21/ 29 1001.1
30 SE NEW RVR IN 1900      65                N/A     8/ 7
27 SE WRIGHTSVLE 1908   63 66  220/ 25/ 35 1002.2
5 SE WRIGHTSVLE  1908   59 58  240/ 16/ 23 1001.8
225 S CAPE HAT   1850   70 75  210/ 25/ 33 1006.5    8/ 7   2/12
41 SE CHARLESTON 1910   66 75  250/ 29/ 35 1004.2

$$




USA.gov is the U.S. government's official web portal to all federal, state and local government web resources and services.